SCP
0 0 0 0 0 0 1 0 0 0 0 0 0 0 0 0 0 0 0 0 0 0
0 0 0 0 0 0 0 0 0 0 0 0 0 0 0 0 0 0 0 0 0 0
0 0 0 0 0 0 0 0 0 0 0 0 0 0 0 0 0 0 0 0 0 0
0 0 0 0 0 0 0 0 0 0 0 0 0 0 0 0 0 0 0 0 0 0
0 0 0 0 0 0 0 0 0 0 0 0 0 0 0 0 0 0 0 0 0 0
0 0 0 0 0 0 0 0 0 0 0 0 0 0 0 0 0 0 0 0 0 0
0 0 0 0 0 0 0 0 0 0 0 0 0 0 0 0 0 0 0 0 0 0
0 0 0 0 0 0 0 0 0 0 0 0 0 0 0 0 0 0 0 0 0 0
0 0 0 0 0 0 0 0 0 0 0 0 0 0 0 0 0 0 0 0 0 0
0 0 0 0 0 0 0 0 0 0 0 0 0 0 0 0 0 0 0 0 0 0
0 0 0 0 0 0 0 0 0 0 0 0 0 0 0 0 0 0 0 0 0 0
0 0 0 0 0 0 0 0 0 0 0 0 0 0 0 0 0 0 0 0 0 0
0 0 0 0 0 0 0 0 0 0 0 0 0 0 0 0 0 0 0 0 0 0
0 0 0 0 0 0 0 0 0 0 0 0 0 0 0 0 0 0 0 0 0 0
Wind_Speed_500mb
65 60 67 71 68 60 62 67 71 73 74 74 73 76 71 71 67 64 64 63 62 64
50 61 65 61 60 56 55 58 62 61 70 71 72 75 76 78 73 72 71 69 67 70
33 43 54 62 67 57 53 56 58 62 58 68 65 68 75 78 77 73 72 73 71 76
12 16 24 33 43 48 55 57 60 64 65 69 66 66 67 67 69 75 77 73 69 70
18 16 16 17 21 26 30 34 39 45 48 53 56 59 64 65 66 66 66 61 66 69
16 15 13 14 17 20 25 30 34 40 45 49 52 56 57 58 58 58 58 60 60 62
17 20 21 23 25 27 29 32 35 38 42 46 48 51 53 55 57 59 61 58 60 60
32 34 35 37 39 40 39 41 44 46 48 50 53 56 58 59 60 58 60 62 63 64
37 39 43 46 49 52 53 55 57 57 58 61 61 62 63 61 63 64 66 66 67 70
41 42 43 46 49 52 55 60 64 67 68 70 69 68 69 69 69 70 70 71 72 73
40 43 46 50 53 56 58 60 62 64 65 70 73 71 70 68 71 74 74 75 76 76
46 48 50 53 56 59 64 67 69 70 72 73 74 69 71 72 71 73 75 76 78 78
53 54 54 53 54 57 61 65 69 73 74 75 78 77 76 72 72 73 75 75 77 78
58 59 59 60 58 58 59 61 65 68 72 74 73 70 69 75 81 74 70 74 75 76
Wind_Direction_500mb
239 245 254 257 258 258 252 256 261 262 262 258 256 252 247 248 250 249 248 246 251 252
248 240 241 244 246 248 248 252 257 260 263 263 253 246 244 247 252 252 252 252 248 249
265 260 252 251 253 250 248 248 251 252 252 265 264 255 249 252 258 258 256 253 248 246
327 290 272 264 262 262 261 258 255 253 255 256 257 259 258 258 256 252 254 254 252 251
12 354 334 309 288 276 267 262 260 256 254 254 254 255 256 258 259 260 260 256 256 250
12 360 341 321 307 298 292 286 279 274 271 269 266 264 264 264 264 263 260 263 252 254
330 324 319 315 309 303 298 293 287 281 277 275 272 270 267 266 265 262 263 256 255 257
313 308 305 302 299 297 297 296 292 287 282 277 274 272 269 267 268 264 260 259 258 259
315 309 306 302 297 294 293 292 292 292 290 287 282 277 274 272 271 269 266 266 266 264
319 317 314 308 303 300 298 295 293 291 289 287 286 286 284 280 275 271 270 269 267 266
315 312 308 305 305 304 300 296 293 291 288 284 283 283 282 282 280 277 274 271 269 267
324 321 318 315 311 306 302 301 301 298 294 290 285 280 281 281 280 278 275 273 270 268
323 320 317 314 312 310 307 305 303 302 302 300 296 291 282 279 280 279 276 273 270 267
319 317 316 314 312 309 305 302 300 299 298 297 297 295 289 284 280 277 278 276 272 268
Wind_Speed_850mb
65 60 67 71 68 60 62 67 71 73 74 74 73 76 71 71 67 64 64 63 62 64
50 61 65 61 60 56 55 58 62 61 70 71 72 75 76 78 73 72 71 69 67 70
33 43 54 62 67 57 53 56 58 62 58 68 65 68 75 78 77 73 72 73 71 76
12 16 24 33 43 48 55 57 60 64 65 69 66 66 67 67 69 75 77 73 69 70
18 16 16 17 21 26 30 34 39 45 48 53 56 59 64 65 66 66 66 61 66 69
16 15 13 14 17 20 25 30 34 40 45 49 52 56 57 58 58 58 58 60 60 62
17 20 21 23 25 27 29 32 35 38 42 46 48 51 53 55 57 59 61 58 60 60
32 34 35 37 39 40 39 41 44 46 48 50 53 56 58 59 60 58 60 62 63 64
37 39 43 46 49 52 53 55 57 57 58 61 61 62 63 61 63 64 66 66 67 70
41 42 43 46 49 52 55 60 64 67 68 70 69 68 69 69 69 70 70 71 72 73
40 43 46 50 53 56 58 60 62 64 65 70 73 71 70 68 71 74 74 75 76 76
46 48 50 53 56 59 64 67 69 70 72 73 74 69 71 72 71 73 75 76 78 78
53 54 54 53 54 57 61 65 69 73 74 75 78 77 76 72 72 73 75 75 77 78
58 59 59 60 58 58 59 61 65 68 72 74 73 70 69 75 81 74 70 74 75 76
Wind_Direction_850mb
239 245 254 257 258 258 252 256 261 262 262 258 256 252 247 248 250 249 248 246 251 252
248 240 241 244 246 248 248 252 257 260 263 263 253 246 244 247 252 252 252 252 248 249
265 260 252 251 253 250 248 248 251 252 252 265 264 255 249 252 258 258 256 253 248 246
327 290 272 264 262 262 261 258 255 253 255 256 257 259 258 258 256 252 254 254 252 251
12 354 334 309 288 276 267 262 260 256 254 254 254 255 256 258 259 260 260 256 256 250
12 360 341 321 307 298 292 286 279 274 271 269 266 264 264 264 264 263 260 263 252 254
330 324 319 315 309 303 298 293 287 281 277 275 272 270 267 266 265 262 263 256 255 257
313 308 305 302 299 297 297 296 292 287 282 277 274 272 269 267 268 264 260 259 258 259
315 309 306 302 297 294 293 292 292 292 290 287 282 277 274 272 271 269 266 266 266 264
319 317 314 308 303 300 298 295 293 291 289 287 286 286 284 280 275 271 270 269 267 266
315 312 308 305 305 304 300 296 293 291 288 284 283 283 282 282 280 277 274 271 269 267
324 321 318 315 311 306 302 301 301 298 294 290 285 280 281 281 280 278 275 273 270 268
323 320 317 314 312 310 307 305 303 302 302 300 296 291 282 279 280 279 276 273 270 267
319 317 316 314 312 309 305 302 300 299 298 297 297 295 289 284 280 277 278 276 272 268